{"data":{"norad_id":56805,"epoch":"2026-09-20T22:00:03.000096Z","epoch_age_seconds":81585,"freshness":"FRESH","line1":"1 56805U 23078AQ  26263.91670139  .00003847  00000+0  27099-3 0  9990","line2":"2 56805  70.0005 192.0958 0004846 254.0599 324.8518 15.05866573  5662","mean_motion":15.05866573,"eccentricity":0.0004846,"inclination_deg":70.0005,"raan_deg":192.0958,"arg_perigee_deg":254.0599,"mean_anomaly_deg":324.8518,"bstar":0.00027099,"rev_number":566,"period_min":95.626002052175,"perigee_km":545.49010104587,"apogee_km":552.20373385867,"semimajor_km":6926.9839174523,"source":"CELESTRAK","updated_at":"2026-09-21T09:00:33.511343Z"}}